Simultaneous Nadir Overpasses (SNOs) Predictions

Prediction of SNOs between NOAA-19 and NPP Satellite Orbit:

Table of predicted SNOs for the next 14.0 days since TLE Epoch: 3/25/2012
Index Date (NOAA-19) Time (NOAA-19) NOAA-19 Lat,Lon Date (NPP) Time (NPP) NPP Lat,Lon Distance(km) Time Diff (sec)
1 03/28/2012 01:23:42 80.53, 113.75 03/28/2012 01:24:52 80.53, 113.81 1.01 70
2 03/28/2012 02:14:40 -80.46, -77.98 03/28/2012 02:15:34 -80.46, -78.02 0.81 54
3 03/28/2012 03:05:43 80.43, 89.70 03/28/2012 03:06:18 80.43, 89.70 0.18 35
4 03/28/2012 03:56:41 -80.36,-102.06 03/28/2012 03:57:00 -80.37,-102.14 1.69 19
5 03/28/2012 04:47:42 80.28, 66.25 03/28/2012 04:47:42 80.28, 66.21 0.66 0
6 03/28/2012 05:38:40 -80.20,-125.54 03/28/2012 05:38:24 -80.21,-125.67 2.55 16
7 03/28/2012 06:29:41
